Find Starlink 3136

NORAD ID: 49443 Int'l Des: 2021-104 Owner: SPXS Country: US Constellation: starlink operational
LEOCIRCULAR

Live Position

Loading 3D Globe...

About Starlink 3136

Description loading...

Upcoming Passes

Passes for default location (London). Set your location on the main map for personalized predictions.

Altitude History

Loading altitude history...

Two-Line Element Set

1 49443U 21104AM 26107.08483752 .00002040 00000-0 14580-3 0 9992
2 49443 53.2179 36.7532 0001129 83.1049 277.0072 15.08952230244715
Epoch: Apr 17, 2026 • Age: 14 hours

Current Status

Altitude 540.3 km
Velocity 7.59 km/s
Sub-Earth Point -0.44°S, 57.17°W
Launch Date Nov 13, 2021
Age 4.4 years
Type internet

Technical Details

Classification Payload
Mass 290.00 kg
Dry Mass 270.00 kg
Total Mass 290.00 kg
Length 0.20 m
Diameter 2.80 m
Span 9.00 m
Shape Box + pan
Manufacturer SPXS
Bus Type Starlink
Phase Status In Orbit
Owner/State SPXS/US

Most Searched